Wind_Speed
13 13 13 12 12 12 12 11 11 11 12 12 12 12 13 12 12 12 11 11 11 11 11 11 11 11 11 10 10 10 10 9 9 9 8 8 9 9 9 9 10 10 11
15 15 14 14 13 13 13 13 13 13 13 13 13 13 14 14 14 14 13 13 12 12 12 12 12 12 12 12 12 12 12 11 11 11 11 10 10 10 10 11 11 12 12
17 16 16 15 15 15 15 15 14 14 14 15 15 15 15 15 15 15 16 15 14 14 13 14 14 13 13 14 14 14 13 13 13 13 13 12 12 11 11 12 12 13 13
18 18 18 17 17 17 17 16 16 16 16 16 17 17 17 17 17 17 17 17 16 16 16 16 16 16 15 15 15 15 15 15 15 15 15 14 14 14 13 14 14 14 14
19 19 19 19 19 19 18 18 18 19 19 19 19 19 19 19 19 19 19 19 18 18 18 18 18 18 18 17 17 17 17 17 17 17 16 16 16 16 16 16 16 16 16
21 20 20 21 21 21 20 20 21 21 21 21 21 21 22 21 21 21 21 20 20 20 20 20 20 20 19 20 20 19 19 19 19 19 19 18 19 19 18 18 18 18 18
22 22 22 22 22 22 22 22 23 23 23 23 23 23 23 23 23 23 23 22 22 22 21 21 22 22 22 22 21 22 22 21 21 21 21 21 21 21 21 20 20 20 20
24 24 24 24 24 24 24 24 25 25 25 25 25 25 25 25 25 25 24 24 25 24 24 23 23 23 24 24 24 24 24 23 23 23 23 23 23 23 23 22 22 21 21
26 26 27 27 26 27 27 27 27 27 27 27 27 27 27 27 27 28 28 27 27 27 27 26 26 26 26 26 26 26 26 26 25 25 25 25 24 24 24 24 24 23 23
28 29 29 29 29 29 29 29 30 30 30 30 29 29 29 30 30 30 31 31 30 30 29 29 29 29 28 28 28 28 28 28 27 27 27 26 26 26 25 25 25 24 25
30 31 31 31 32 32 32 32 32 32 32 32 32 32 32 32 32 32 33 33 33 32 32 32 32 31 31 30 30 30 30 30 30 29 29 28 28 28 28 27 26 26 26
32 33 33 34 34 34 34 35 35 35 35 35 35 34 34 35 35 35 35 35 35 35 35 35 34 34 34 34 33 32 32 32 32 31 31 30 30 30 30 29 29 28 28
34 35 35 36 37 37 37 36 37 37 37 37 37 37 37 37 37 37 37 37 37 37 37 37 37 37 36 36 36 35 35 34 33 33 33 32 32 31 31 31 30 29 29
35 35 36 37 37 38 38 38 39 39 39 39 39 39 39 39 38 39 39 39 39 39 39 38 38 38 38 38 37 37 37 36 36 35 35 34 34 34 33 33 32 31 30
36 36 36 37 37 38 39 39 40 40 40 40 40 40 40 39 39 40 39 39 40 40 41 41 41 41 40 40 40 39 39 38 38 37 37 36 36 35 35 35 35 33 33
37 37 37 37 38 38 38 39 40 40 41 41 41 41 40 40 40 40 41 41 41 41 42 42 43 43 43 42 42 42 41 41 41 40 40 39 38 38 37 37 37 36 36
38 38 38 38 38 39 39 39 40 41 40 41 40 41 41 41 41 41 42 42 43 43 43 43 44 44 44 44 44 43 43 43 43 43 43 42 42 41 41 40 40 39 39
38 39 39 39 39 39 39 39 39 40 41 41 41 41 41 41 41 41 42 43 44 45 45 45 46 46 46 46 45 45 45 45 45 45 45 44 44 43 43 43 42 41 41
38 39 39 39 39 39 39 40 39 39 40 41 42 42 42 42 42 42 43 43 44 44 45 46 46 47 47 47 47 47 46 46 46 46 46 45 45 44 43 43 43 43 42
38 38 39 39 39 39 40 40 41 41 41 41 41 42 43 43 42 43 43 44 43 44 45 45 46 47 48 49 49 48 48 48 47 47 46 46 46 45 44 44 44 44 44
37 37 37 38 39 39 40 40 41 41 41 42 42 42 43 44 43 43 43 44 44 45 45 46 46 47 48 49 50 50 49 49 48 47 46 46 47 46 45 45 45 44 44
35 35 36 37 39 40 40 41 42 42 42 43 44 44 44 45 45 45 44 42 43 44 45 46 46 46 47 48 49 50 49 48 48 47 47 47 47 47 47 46 46 45 45
32 34 35 37 38 39 40 41 41 41 42 43 44 44 45 45 45 45 45 44 44 44 44 43 44 46 46 46 48 49 48 47 47 47 48 48 48 48 48 47 47 46 46
31 32 34 36 37 39 39 40 40 41 41 42 43 44 44 45 45 45 45 45 45 44 44 43 43 44 44 45 46 47 48 48 48 48 48 49 49 49 49 48 48 47 47
31 32 32 34 36 37 38 39 40 40 41 42 42 43 43 44 44 44 44 44 44 45 45 45 44 44 44 45 46 47 48 48 49 48 49 49 49 49 49 49 49 48 47
31 32 32 33 34 35 36 37 38 39 40 41 41 42 42 42 43 43 44 44 44 44 44 44 44 45 45 46 47 47 48 48 49 49 49 49 48 48 49 49 49 48 48
Wind_Direction
255 255 257 258 260 261 261 260 259 255 252 250 248 246 247 248 246 246 247 244 241 239 241 243 241 240 239 239 239 239 240 243 243 245 247 249 250 255 259 260 263 266 265
255 256 258 259 260 261 261 260 259 257 254 251 250 249 249 249 249 248 248 246 244 243 244 246 247 244 242 242 243 244 245 247 249 250 251 253 255 257 259 263 265 266 267
256 257 259 260 262 261 262 260 258 256 255 254 253 252 251 251 251 251 251 248 245 246 248 249 248 249 248 246 246 247 248 249 251 252 253 254 256 259 261 265 267 266 266
256 257 258 260 262 262 261 261 258 257 257 255 254 253 254 254 253 253 253 253 250 249 250 250 251 252 253 252 250 250 250 251 252 254 254 256 257 260 262 264 266 266 267
256 257 258 260 260 261 261 259 258 258 258 257 256 254 254 256 256 255 255 255 254 252 252 253 253 254 256 257 256 254 254 254 253 255 256 257 259 262 263 264 265 266 267
257 258 258 259 260 260 261 261 260 259 259 259 258 256 255 255 256 257 257 256 255 254 254 254 254 254 255 256 257 257 257 256 256 258 259 260 261 263 264 264 265 266 267
258 258 259 259 260 261 261 262 262 261 260 258 257 256 255 255 257 258 258 257 256 256 255 255 254 255 256 255 257 259 258 257 258 261 261 262 263 263 264 265 265 265 265
259 259 259 260 261 262 262 262 262 262 262 261 259 258 256 256 257 258 258 258 258 257 256 255 256 257 257 257 258 259 259 258 260 262 262 263 264 263 264 265 265 265 265
260 261 261 261 261 262 262 262 262 261 261 260 260 259 258 257 256 257 258 258 257 257 257 257 257 258 258 259 259 259 258 259 261 261 262 263 263 265 266 265 264 263 264
262 262 263 263 262 262 262 262 262 262 261 260 260 260 259 259 258 258 258 258 258 257 257 258 257 257 258 259 259 259 259 260 261 261 261 263 264 265 266 265 265 264 263
263 263 263 263 264 263 263 262 262 262 262 261 260 260 260 259 259 259 259 258 258 258 257 257 258 258 258 258 259 260 261 261 260 261 261 262 263 263 264 264 265 264 263
265 264 264 264 264 264 263 262 262 262 262 262 261 260 260 260 260 260 259 258 258 257 257 257 257 257 258 259 260 261 262 262 262 261 261 262 262 263 263 263 264 263 263
266 265 264 264 263 263 263 263 262 262 262 262 262 262 261 261 261 260 259 258 257 257 257 257 257 257 258 259 260 260 261 262 262 262 262 262 262 263 263 262 262 262 263
266 265 264 264 263 263 263 263 263 263 263 262 262 262 261 261 261 261 260 258 257 257 257 256 256 257 257 258 259 260 260 261 261 262 262 262 262 263 263 262 261 262 261
265 265 264 264 264 264 264 264 265 265 264 263 262 261 261 261 260 260 260 259 257 257 257 256 256 256 257 257 258 259 260 261 261 262 262 262 261 261 261 262 261 260 261
265 265 264 264 265 265 265 265 265 266 265 264 263 262 262 261 261 260 259 259 258 258 257 257 257 257 257 258 258 258 258 259 260 262 262 263 262 261 261 261 260 260 261
265 265 265 264 264 265 265 266 266 266 265 265 264 263 263 263 263 261 260 260 260 259 259 259 258 257 257 257 258 258 259 259 259 261 261 262 262 261 261 261 260 260 261
265 265 265 265 264 265 266 266 266 265 265 265 264 264 263 263 264 263 262 261 261 261 260 259 259 258 257 258 258 258 259 259 260 260 261 262 262 261 261 261 261 260 260
264 264 265 265 265 265 266 266 266 264 264 265 265 264 264 264 264 263 262 262 262 262 261 260 260 259 259 259 259 259 260 260 260 261 261 261 262 261 261 261 260 260 259
264 264 264 264 265 265 266 266 265 264 264 265 265 266 265 265 265 265 263 263 263 262 261 261 260 261 261 260 260 260 260 260 260 261 260 260 260 260 261 260 260 259 258
264 265 265 264 264 265 266 266 265 265 265 266 266 266 266 266 266 266 266 266 264 263 263 263 262 262 262 261 260 259 260 260 259 259 259 259 259 259 260 260 259 259 258
266 265 264 265 265 266 266 266 265 265 266 267 268 268 268 268 267 267 268 266 265 265 265 264 263 262 262 261 261 260 260 260 259 258 258 258 258 258 259 259 259 259 258
267 268 267 266 267 267 267 267 266 265 266 267 268 268 268 269 268 268 268 268 267 266 266 266 265 263 262 262 261 260 259 259 259 259 259 259 258 258 258 259 259 258 258
269 269 269 269 269 269 269 268 268 267 268 268 268 269 269 270 269 269 269 269 268 268 267 268 267 265 264 263 262 260 259 259 259 258 258 258 258 257 257 258 258 258 258
271 271 271 270 270 271 270 269 269 270 270 270 270 269 270 270 269 269 268 268 268 268 267 267 268 265 265 264 262 260 259 259 259 258 258 257 257 256 256 257 257 257 257
273 273 273 273 272 272 272 271 271 271 271 271 271 270 270 269 269 269 268 268 268 269 268 268 267 266 265 264 263 261 260 259 259 259 258 257 257 256 256 255 256 256 256
Height
5844 5844 5844 5844 5844 5844 5843 5843 5843 5843 5843 5844 5844 5844 5844 5845 5845 5845 5845 5845 5845 5845 5846 5846 5847 5847 5848 5848 5849 5849 5849 5850 5850 5850 5850 5850 5850 5850 5851 5851 5851 5850 5850
5842 5841 5842 5842 5842 5841 5841 5841 5841 5840 5841 5841 5842 5842 5842 5842 5842 5843 5843 5843 5843 5843 5843 5844 5844 5845 5845 5846 5846 5847 5847 5848 5848 5848 5848 5848 5848 5848 5849 5848 5848 5848 5848
5838 5838 5839 5839 5839 5839 5839 5839 5838 5838 5838 5838 5839 5839 5839 5839 5840 5840 5840 5840 5841 5841 5841 5841 5842 5842 5843 5843 5844 5844 5845 5845 5845 5846 5846 5846 5846 5846 5846 5846 5846 5846 5846
5835 5835 5835 5835 5835 5835 5836 5836 5835 5835 5835 5835 5836 5836 5836 5836 5837 5837 5837 5837 5838 5838 5838 5839 5839 5839 5839 5840 5841 5841 5842 5842 5843 5843 5843 5843 5843 5843 5843 5843 5843 5843 5843
5831 5831 5831 5831 5832 5832 5832 5832 5832 5832 5832 5832 5832 5832 5833 5833 5833 5833 5833 5834 5834 5835 5835 5835 5836 5836 5836 5837 5837 5838 5838 5839 5839 5839 5840 5840 5840 5840 5840 5840 5840 5840 5840
5827 5827 5827 5827 5827 5827 5827 5827 5828 5828 5828 5828 5828 5828 5829 5829 5829 5829 5830 5830 5830 5831 5831 5832 5832 5832 5833 5833 5834 5834 5834 5835 5835 5836 5836 5836 5836 5836 5837 5837 5837 5837 5837
5822 5822 5823 5823 5823 5823 5823 5823 5823 5823 5823 5823 5823 5823 5824 5824 5824 5825 5825 5825 5826 5827 5827 5827 5828 5828 5829 5829 5829 5830 5830 5831 5831 5831 5832 5832 5832 5832 5832 5832 5833 5833 5833
5817 5817 5818 5818 5818 5818 5817 5817 5817 5817 5818 5818 5818 5818 5818 5819 5819 5819 5820 5820 5821 5821 5822 5822 5823 5823 5824 5824 5825 5825 5825 5826 5826 5827 5827 5827 5827 5828 5828 5828 5828 5828 5828
5811 5812 5812 5812 5812 5812 5812 5811 5811 5811 5812 5812 5812 5812 5812 5813 5813 5813 5814 5814 5815 5815 5816 5817 5817 5818 5819 5819 5819 5820 5820 5821 5821 5821 5822 5822 5822 5823 5823 5823 5823 5824 5824
5805 5805 5805 5805 5805 5805 5805 5805 5805 5805 5805 5805 5805 5806 5806 5806 5806 5807 5807 5808 5808 5809 5810 5810 5811 5812 5813 5813 5814 5814 5814 5815 5815 5816 5816 5817 5817 5817 5817 5817 5818 5818 5818
5798 5798 5798 5798 5798 5798 5798 5797 5797 5797 5797 5798 5798 5798 5798 5798 5799 5799 5799 5800 5801 5802 5803 5803 5804 5805 5806 5806 5807 5807 5808 5808 5809 5810 5810 5810 5811 5811 5811 5812 5812 5812 5813
5791 5791 5791 5791 5790 5790 5789 5789 5789 5789 5789 5789 5789 5790 5790 5790 5790 5791 5791 5792 5793 5794 5795 5796 5797 5798 5798 5799 5800 5800 5801 5801 5802 5803 5803 5804 5804 5805 5805 5806 5806 5806 5807
5783 5783 5782 5782 5782 5781 5781 5781 5781 5780 5780 5780 5780 5780 5781 5781 5781 5782 5782 5783 5784 5785 5786 5787 5788 5789 5790 5791 5791 5792 5793 5794 5794 5795 5796 5796 5797 5797 5798 5798 5799 5799 5800
5774 5774 5774 5773 5773 5772 5772 5772 5771 5771 5771 5771 5770 5771 5771 5771 5772 5772 5773 5773 5774 5775 5777 5778 5779 5780 5781 5782 5783 5784 5785 5785 5786 5787 5788 5789 5789 5790 5790 5791 5792 5792 5793
5765 5765 5764 5764 5763 5763 5762 5762 5762 5761 5761 5761 5760 5761 5761 5761 5762 5762 5763 5763 5764 5765 5767 5768 5769 5770 5772 5773 5774 5775 5776 5776 5777 5778 5779 5780 5781 5781 5782 5783 5784 5784 5785
5756 5755 5755 5755 5754 5754 5753 5752 5752 5751 5751 5751 5751 5751 5751 5751 5751 5752 5753 5753 5754 5755 5756 5757 5759 5760 5761 5762 5764 5765 5766 5767 5768 5768 5769 5770 5771 5772 5773 5774 5775 5776 5777
5746 5746 5746 5745 5745 5744 5743 5742 5742 5741 5741 5741 5741 5741 5741 5741 5741 5742 5742 5743 5744 5744 5745 5746 5748 5749 5750 5752 5753 5754 5755 5756 5757 5758 5759 5760 5761 5762 5763 5764 5765 5766 5767
5737 5736 5736 5735 5735 5734 5734 5733 5732 5731 5731 5731 5731 5731 5731 5731 5731 5732 5732 5732 5733 5733 5734 5735 5737 5738 5739 5740 5742 5743 5744 5745 5746 5747 5748 5748 5750 5751 5752 5753 5754 5756 5757
5726 5726 5726 5725 5725 5724 5724 5723 5722 5721 5721 5721 5720 5720 5721 5721 5721 5721 5721 5721 5722 5722 5723 5724 5725 5726 5727 5729 5730 5731 5732 5734 5734 5735 5736 5737 5738 5739 5740 5742 5743 5745 5746
5716 5716 5715 5715 5715 5714 5713 5713 5712 5711 5711 5710 5710 5710 5710 5710 5710 5710 5710 5710 5710 5711 5711 5712 5713 5714 5715 5716 5718 5719 5720 5721 5722 5723 5724 5725 5726 5727 5728 5730 5731 5733 5735
5705 5705 5705 5705 5704 5704 5703 5702 5702 5701 5701 5700 5700 5700 5699 5699 5699 5699 5699 5699 5699 5699 5700 5700 5701 5701 5702 5703 5705 5707 5708 5709 5710 5711 5712 5713 5714 5715 5717 5718 5719 5721 5723
5695 5695 5695 5694 5694 5693 5693 5692 5691 5691 5690 5690 5689 5689 5689 5688 5688 5687 5687 5687 5687 5688 5688 5688 5688 5689 5690 5690 5692 5693 5695 5697 5698 5699 5700 5701 5702 5703 5705 5706 5708 5709 5711
5686 5685 5685 5684 5683 5683 5682 5681 5680 5680 5679 5679 5678 5678 5677 5677 5676 5676 5676 5675 5676 5676 5676 5676 5676 5677 5677 5678 5678 5680 5682 5684 5685 5687 5688 5689 5690 5691 5693 5694 5696 5697 5699
5676 5676 5675 5674 5673 5672 5671 5670 5670 5669 5669 5668 5668 5667 5666 5666 5665 5665 5664 5664 5664 5664 5664 5664 5664 5664 5665 5665 5666 5667 5669 5670 5672 5674 5676 5676 5678 5679 5680 5682 5684 5685 5687
5667 5666 5665 5664 5663 5662 5661 5660 5659 5658 5657 5657 5656 5655 5655 5654 5654 5653 5653 5653 5652 5652 5652 5652 5652 5653 5653 5653 5654 5655 5656 5657 5658 5660 5663 5664 5665 5666 5668 5670 5671 5673 5675
5658 5657 5655 5654 5653 5652 5651 5650 5648 5647 5646 5645 5645 5644 5643 5643 5642 5642 5642 5641 5641 5641 5641 5641 5640 5640 5641 5641 5642 5642 5643 5645 5646 5647 5649 5651 5653 5654 5655 5657 5659 5661 5663